Location: Ash Swamp
(41.5170°N, 74.6157°W)
Time: 02:28:47
(UTC+00:00)

CZ-2D R/B - Pass Details

Date: 14 July 2020
Orbit: 792 x 844 km, 98.7° (Epoch: 14 August)

Event Time Altitude Azimuth Distance (km) Brightness Sun altitude
Rises 07:24:52 0° 5° (N) 3,349 6.4 -19.0°
Reaches altitude 10° 07:27:21 10° 357° (N) 2,421 5.3 -18.7°
Maximum altitude 07:32:12 36° 292° (WNW) 1,277 3.0 -18.2°
Enters shadow 07:34:25 26° 248° (WSW) 1,585 3.1 -18.0°
